"Pseudo-MPEC" for P21AXhm

Created 2022 Nov 26 22:22:22 UT using Find_Orb

Click here for an explanation of pseudo-MPECs

 
 Astrometry: 
     P21AXhm  C2013 11 25c`J,K9q1w85muBw[N2o];JXJfe7reA6kvQ_n\`R*[N'=nf:c6L3VF51
     P21AXhm  C2013 11 27NSG!h7DZ3Ps[F/Bx9WLAN)i:CR+I?awrcxkQiieW?^8fn4aFE\tNF51
     P21AXhm  C2013 11 27KiK#ttw5Kox$:*m*o$#.qC+b=Q-5%o:)C4ZX_)1cD;1Nd5Qr`uNlF51
     P21AXhm  C2013 11 27]lwDF#3KLM.o;h(rmb)jLruyYpM%-s+?ZE`ESV`B8;n+30mTshOrF51
     P21AXhm  C2013 11 27!-s]9mq18WWkg=g%25dEE1;S_*]W+7WfD+#7xtI6QZ[sQ#Rd8=/8F51
     P21AXhm  C2013 11 27(KEg/(En?V4a7/91X)=l?jDBBbZ9KLBvr/_T..N?BlZZ!tE4#Zv,F51
     P21AXhm  C2013 11 27X)@SBl%dBQN\,6j4U2ZjF[dFIAb^I6R]iN)ImKTAa`1QtAd.1djOF51
     P21AXhm  C2013 11 270mpMQhvH%(+HVhKImDUfV,;wJIbim7y;aLFPn/*S1au]dic/D)e*F51
     P21AXhm  C2013 12 05x/XxIowd0$e:3IeA[Lj+[y)d4c4CelA4;rSLvrfW+jBLKHCC8NX8F51
     P21AXhm  C2013 12 052BV_kCJ79SjF%AEx#5@*:hM7!org8OgQtdV1\IdMoCngilDXfNsTF51
     P21AXhm  C2013 12 07!04WZ-Dr6f#0PYu3(:`w].Tc_@Astrometry7XNmBbJIHN_4RIe1F51
     P21AXhm  C2014 01 06yR:98kvdWTMtNH1pd[Mh^!'r-Q]s*53C'Xs[BP5Il/ht1ykP5rsMF51
     P21AXhm  C2014 01 06yE[*]T4LAW.SQiv'%ENhgHTAm*0e)9!(t,e(t8IRF)5RdnR8]?akF51
     P21AXhm  C2021 08 05:TOJ@Q-3,6al!igmlsmn]!fQSYhL@YAN.kH9y[5BFjeg8W`+h']tF51
     P21AXhm  C2021 08 054:6P[8Mg,,oE,9dNQBh]H_%)BS=8J1(mF8tgDj*IikbSs:OaQwF0F51
     P21AXhm  C2021 08 05ZBw4hcpBV=Z*^Y*N=SqboK[/w:RCK2redacted;@id.1M%S]v3gZF51
     P21AXhm  C2021 08 05FKcXZM_b7:9Ql\XVEB?VID/,twM.wxq;V,v^k8u+QLQg)0D(,=_VF51
     P21AXhm  C2021 09 08aH5yjCQBolS!B7FZf,e87SuGQ$.n=d/?ZD?$gpG67_k8sWx_I58EF52
     P21AXhm  C2021 09 08]Cclick#E7@/F_CjXH1NoHEo9^`+Wq)p@?beV+B!BbdB-fZUxc$bF52
     P21AXhm  C2021 09 08M9FgEW^(N%G6D#BgX)Ba_PM@_%]d%E7sE%r=*BAA%=.8[kZBQdJKF52
     P21AXhm KC2021 09 25$Obh/aY\,8TbV.mR04Mj+5(f'c2'3]+EM%,`alSoTc$!o4iCXtX`F52
     P21AXhm &C2021 09 26a_#$q^7.C-SJ39dN+=D:H;v6+?o%w/@7fDb$5qGwJKd68#S\=4^3W84
     P21AXhm &C2021 09 260Or)xQ-rqNpZR`QT]U%Gso9QIPH74[G=-P;_0I1(w')gm]$H=%v2W84
     P21AXhm  C2021 09 30?M5ouL]1M!WWB?hJpp@T7375.A1u:80/h7GSHqv)8qBbAbYOTOdJF52
     P21AXhm  C2021 09 30v7ehNVmu/1w[adY.5UpWq3jFA?1]Cau.)Q7`D2I/0^qH*h^`^oWqF52
     P21AXhm  C2021 09 30_$l$iPG*%03VGMT3wcw[Z#^ekv%*k\UP:H.]x/gWs!3@Ng.%*+a?F52
     P21AXhm  C2021 09 30cE^TAc8fyn:$wn3?Ka@^[H%iN/uiN^4fl/O+uOykCootc\94wYLYF52
     P21AXhm  C2021 10 26\QH0:wyC[g/(P93%hfpe[?_DUy2S2^2n54X)21LmR6u(Ob-q(W\cF52
     P21AXhm  C2021 10 30PAa,ts9-WKUF9hPKSVs,lHhA1Pl9-NW^JrDDl]+#.;JG]M60Fv#nF52
     P21AXhm  C2021 10 30exYokM?*:C^BHA'L)BP+Y*XJ:XF=Le`Z-3]qQJs6lv1MH;Jx)(2SF52
     P21AXhm  C2021 10 30vj:p?0V=i7w`hG4Xm0jA2_kd9NFK(B;\\1!lh!c1l;r[`9dp]+(vF52
     P21AXhm  C2021 11 06PF5Xl``4!vKgxq/S5@FPl[lRtVH2;*.EPD$B*1`;\Mm-\FBVFLI'F51
     P21AXhm  C2021 11 06?!O$hE.vj9@n5KgFe(\8ujNAf*B9-I2/%a3m,ujw40E$52JTnaFiF51
     P21AXhm  C2021 11 06+teqY-0@0BO6^)jlsA^A*M-/(pNE!#dL6K7V\3`rqV!HO7)3Xg:@F51
     P21AXhm  C2021 11 06vBvFKu!hereN`(1?tGR4?Jkuf9J#B76dQV`N,ay''gDyS=Mpb@tSF51
     P21AXhm  C2021 11 07o`F?=CV--a=G5IbhQ%Ir#%APk8eEo%EhBhD*u_GwOK_qVuNBwT=MF51
     P21AXhm  C2021 11 074.?hs]xd%tR#$(b%7Qc-]^5Y[CvcW*(yW!6Ue;O=.y'4$r?C5LZsF51
     P21AXhm  C2021 11 23;9/_5Lps.pP/,_tHhl@vk!dpN)mc/'7K@F0/LZ(ZP2j7q9_0Y6[LF51
     P21AXhm  C2021 11 23/*sLmct/()5cepmw:*nXw-iWCElDKU(D'uDknTP!jmf:acTE1fC/F51
     P21AXhm  C2021 11 23TbTF`%UB#\=GMe?\ptLc`fJ#tJ4`G-p!o$!/*VQ-lH/t4(V^#\G=F51
     P21AXhm  C2022 09 16LAvv/\w,xe1StocKVUNeOH_%AGBwM=s#M0ipRU'+)vn/-$]r-ytGF52
     P21AXhm 1C2022 10 20.44275008 09 32.389+34 34 58.12   ~BEFq       VNEOCPG96
     P21AXhm 1C2022 10 20.44797508 09 32.800+34 35 00.85   ~BEFq 21.17GVNEOCPG96
     P21AXhm 1C2022 10 20.45320308 09 33.152+34 35 01.54   ~BEFq 21.63GVNEOCPG96
     P21AXhm 1C2022 10 20.45845408 09 33.541+34 35 03.23   ~BEFq 20.73GVNEOCPG96
     P21AXhm* C2022 10 28yyBv@N9mQf#R0t*eUjH,8W9:e$9`Kl9mm53uO'Lo^X%2=DB-mNyJF52
     P21AXhm  C2022 10 28Ap?`t2FyY`lLOZGX;MNS`Sf#R.dy6c#1YBq-/r,h2y:a3;@NBH'(F52
     P21AXhm  C2022 10 28UG_-/I,y300F,\T;T`)f9w'Ll!T5I6q%]WfmsFm]1nim+!b4gV2HF52
     P21AXhm  C2022 10 28\$J7mMMeRdv?1VlX$Oir6t#768Xl$O\*f*XmIdWE]C!O!%XDwQZKF52
     P21AXhm KC2022 10 30.49250108 21 14.778+35 30 49.68   ~AUCb 20.74GVNEOCPI52
     P21AXhm KC2022 10 30.49759308 21 15.116+35 30 50.98   ~AUCb 21.58GVNEOCPI52
     P21AXhm KC2022 10 30.50349208 21 15.484+35 30 53.53   ~AUCb 21.11GVNEOCPI52
     P21AXhm KC2022 10 30.50937508 21 15.808+35 30 55.51   ~AUCb 20.73GVNEOCPI52
     P21AXhm 3C2022 10 30TqbFOTJU]a:#ErJn6(9tKn#t\JK3^QgU9h*G89_S-bx%3Fpo_jt.T14
     P21AXhm 3C2022 10 30G\]$apb88q+!SrnlTX[A%+jOdLwbZvJ+^bCUn#0!OYmU5!4pCmV3T14
     P21AXhm 3C2022 10 30e+x8(pTcm$n+gka[nK6w*)S?*Aj'4F;yQmk4cFw0JEkj#8(53yh,T14
     P21AXhm 3C2022 10 31*cP1QvQ(sv7vmG!lcl\@MtIic6C,vMforoM8G#?R+l(!)%H+Z:HPT14
     P21AXhm 3C2022 10 31iS$lwh\@tXGi+_j/$BnKKpT*9d3bjcQDhwA0Y;*7bMwG,`QeJ_oCT14
     P21AXhm 3C2022 10 31yYVaJslH;CiK^/mF]jmUPM;+$[UPR=0.X4\$\wG%I#cXp/o;VJk*T14
     P21AXhm 3C2022 10 31@Pb!,Q^w;GU))YeZZD)]-.p1IM6n1VEsW+TbCQXjaaMt'.UKkl3aT14
     P21AXhm 3C2022 10 31)MI0crA?=oPHIlkTJ6;f=jm%ErKk+2l5_oEHgAA^6K,9RmhBcT_ST14
     P21AXhm KC2022 11 02!?RtjC%in_:L[`1K1qdO#Wryt9'\X3VHW5$*@_x_f3yQ^dn3@%.FW62
     P21AXhm KC2022 11 02r5(PI8RZ(WZfQtj`Qi7i.9ks$BS2BK%%q.9yeMeqG)aa4+x#9ln;W62
     P21AXhm KC2022 11 02eM7r9YDo^tVbg/(;Oy2`$GEV$^HMShD:9$^/8]L!%\)t1\6CvnDBW62
     P21AXhm |C2022 11 02KIZMvh;P20CjHR-ajYooyi[Y$WNHSyK4!VvQh,uYT'@;KS1tId=)H06
     P21AXhm |C2022 11 02yw-1%0d$explanation5R*7.hwf=0AE*6p]HE`2bjf_QwdaaBwn'H06
     P21AXhm KC2022 11 04haVSNN=osG_C+-hkt+5`jg]/(x+YlfGINXV,@%YAdVLyLF*a`N(wW62
     P21AXhm KC2022 11 0471uCjB/lk7JGm0Aric7yCcxo/\WI1_FHJuEoqUaFed:u_fH#qlfpW62
     P21AXhm KC2022 11 04;ORLx=2x@6Ne+EtFbA15`e!Xh%P4EOu,MJhjXT/dy*d;%vu:6a;oW62
     P21AXhm KC2022 11 23)tyq@yFo_v/DS#VcA0G+%L[!fr[AyV@pPspyXsuBqRutb8or9UR?W62
     P21AXhm KC2022 11 236-_.IA)HQ#r[vhZ/a/+3;Za$sWPf2(,5k18fn:=r2xH!2WvO7w7oW62
     P21AXhm KC2022 11 23JHF64Nv6h!VTpqLh]$6^7HUgd*X;uNeCt1RHt@IQO?Ua_YRxJTS7W62
     P21AXhm 3C2022 11 23r7J43xy0LUB(.D#NmTWg0f(oFZGJ4-lfA%d@ijver^/ufW)Dx9dcT14
     P21AXhm 3C2022 11 230a05OeQ\W=W6[RY%(Ewf.sR?VP=p;x3%9w:hbEKs\cQ4CVBT(P'[T14
     P21AXhm 3C2022 11 23J71A-?t,XrG4FLbb.K:CnJ96XBA9WEQBf8I,3/_/?s/k[rTafQU6T14
     P21AXhm KC2022 11 24jFIfAbCf9@RRi8eRWJ;PwKB3wPtc'OSKO8pe56XUi0x[OPlSFCQqW62
     P21AXhm KC2022 11 24?dno81PAdUqAmA`]Xrl!)k62u)fAq8E5`nMqxn6S?1Gaq^siPNLAW62
     P21AXhm KC2022 11 24d_qm%8sP+reE@8=`-r?AiW:2-h_ORxWlM-Qrw@d:_$!W*?PK.-?tW62

Station data:
(F51) Pan-STARRS 1, Haleakala  (N20.707234 W156.255910)  US/Hawaii.
   Observers J. Bulger, T. Lowe, A. Schultz, M. Willman. Measurers K.
   Chambers, S. Chastel, T. de Boer, L. Denneau, J. Fairlamb, H. Flewelling,
   M. Huber, C.-C. Lin, E. Magnier, Y. Ramanjooloo, R. Wainscoat, R. Weryk.
   1.8-m Ritchey-Chrétien + CCD.
(F52) Pan-STARRS 2, Haleakala  (N20.707382 W156.255910)  US/Hawaii.
   Observers J. Bulger, T. Dukes, T. Lowe, A. Schultz, M. Willman. Measurers
   K. Chambers, S. Chastel, T. de Boer, L. Denneau, J. Fairlamb, H.
   Flewelling, M. Huber, C.-C. Lin, E. Magnier, Y. Ramanjooloo, R. Wainscoat,
   R. Weryk. 1.8-m Ritchey-Chrétien + CCD.
(G96) Mt. Lemmon Survey  (N32.442751 W110.788720)  US/Arizona.  Observers T.
   A. Pruyne, B. M. Africano, J. D. Ahern, E. C. Beshore, A. Boattini, E. J.
   Christensen, G. A. Farneth, D. C. Fuls, A. R. Gibbs, A. D. Grauer, H.
   Gröller, R. E. Hill, J. A. Johnson, R. A. Kowalski, S. M. Larson, G. J.
   Leonard, R. G. Matheny, R. H. McNaught, D. Rankin, R. L. Seaman, F. C.
   Shelly, K. W. Wierzchoś. Measurer  K. W. Wierzchos. 1.5-m reflector + 4K
   CCD + 10K CCD.
(H06) RAS Observatory, Mayhill  (N32.903322 W105.528700)  US/New
   Mexico.  Observer H. Sato. 0.43-m f/6.8 astrograph + CCD + f/4.5 focal
   reducer0.25-m f/3.4 reflector + CCD0.50-m f/6.8 reflector + CCD + f/4.5
   focal reducer0.10-m f/5.0 astrograph + CCD.
(I52) Steward Observatory, Mt. Lemmon Station  (N32.442544 W110.788920)
   US/Arizona.  Observers T. A. Pruyne, B. M. Africano, J. D. Ahern, E. C.
   Beshore, A. Boattini, E. J. Christensen, G. A. Farneth, D. C. Fuls, A. R.
   Gibbs, A. D. Grauer, H. Gröller, R. E. Hill, J. A. Johnson, R. A.
   Kowalski, S. M. Larson, G. J. Leonard, R. G. Matheny, R. H. McNaught, D.
   Rankin, R. L. Seaman, F. C. Shelly, K. W. Wierzchoś. Measurer  K. W.
   Wierzchoś. 1.0-m reflector + CCD.
(T14) Mauna Kea-UH/Tholen NEO Follow-Up (CFHT)  (N19.825252 W155.468876)
   US/Hawaii. 3.6-m Canada-France-Hawaii Telescope.
(W62) Comet Hunter Observatory2, New Ringgold  (N40.745185 W75.862390)
   US/Pennsylvania.  Observer J. Maikner. 0.30-m f/3.8 Riccardi-Honders + CCD.
(W84) Cerro Tololo-DECam  (S30.169594 W70.806420)  Chile.  Observer S. Deen.
   4.0-m reflector + CCD.

Orbital elements:  P21AXhm
   Perihelion 2022 Jul 25.95584 +/- 0.00132 TT = 22:56:24 (JD 2459786.45584)
Epoch 2022 Nov 24.0 TT = JDT 2459907.5   Ju: 0.0646           AutoNEOCP
M  13.83729828 +/- 0.00015          (J2000 ecliptic)
n   0.11431611 +/- 2.21e-8          Peri.   19.98328 +/- 0.00027
a   4.20466192 +/- 5.43e-7          Node    54.58937 +/- 0.000038
e   0.3612637 +/- 3.95e-7           Incl.   19.81274 +/- 0.000013
P   8.62                   H 16.6   G  0.15   U  1.3
q 2.68566978 +/- 1.33e-6    Q 5.72365405 +/- 2.38e-6
From 78 observations 2013 Nov. 25-2022 Nov. 24; mean residual 0".24
Residuals in arcseconds: 
131125 F51  .09+  .09+    210930 F52  .08-  .02+    221030 I52  1.0-  .12+    
131127 F51  .13-  .08+    211026 F52  .00   .22-    221030 T14  .02+  .01-    
131127 F51  .04-  .07-    211030 F52  .26+  .05-    221030 T14  .03+  .00     
131127 F51  .02-  .10+    211030 F52  .03-  .01+    221030 T14  .07+  .00     
131127 F51  .36-  .10+    211030 F52  .14+  .27+    221031 T14  .11+  .01+    
131127 F51  .12+  .01-    211106 F51  .26+  .48+    221031 T14  .05+  .02-    
131127 F51  .31-  .07+    211106 F51  .48+  .16+    221031 T14  .08+  .01-    
131127 F51  .16-  .08-    211106 F51  .07+  .05+    221031 T14  .05+  .01-    
